Página principal
METAR-TAF:

METAR-TAF

Aeroportos :

Livingston County Spencer J. Hardy Airport

Howell, Michigan, Estados Unidos

latitude: 42-37-46N, longitude: 083-59-03W, altura: 293 m

Observação actual do tempo

O boletim foi feito há 21 horas e 6 minutos, às 00:15 UTC
Vento 9 kt de este
Temperatura 24°C
Humidade 65%
Pressão 1014 hPa
Visibilidade: 16.1 km
Céu limpo

METAR: KOZW 210015Z AUTO 10009KT 10SM CLR 24/17 A2993 RMK AO2 T02400172

Hora: 17:21 (21:21 UTC)


TAF: em falta

Observações e previsões do tempo de mais de 4000 aeroportos (mensagens METAR e TAF).

As estações disponíveis são os pontos amarelos e vermelhos sobre o mapa.

Mova o rato sobre o mapa para ver o nome da estação.

Depois clique no ponto para visualizar as observações e previsões meteorológicas.

Para alterar o mapa : clique nos botões verdes com uma cruz preta para aumentar o zoom; no botão verde com uma pitada de zoom; ou nas setas verdes para mapas adjacentes.


METAR-TAF: